Location: Strawberry
(45.6646°N, 111.9596°W)
Time: 21:24:54
(UTC+00:00)

Courier 1B Rocket - Pass Details

Date: 11 October 2022
Orbit: 920 x 1202 km, 28.3° (Epoch: 03 December)

Event Time Altitude Azimuth Distance (km) Brightness Sun altitude
Rises 00:56:13 0° 239° (WSW) 3,968 9.7 -1.8°
Reaches altitude 10° 01:00:01 10° 222° (SW) 2,956 8.4 -2.4°
Maximum altitude 01:04:40 18° 181° (S) 2,327 7.1 -3.2°
Drops below altitude 10° 01:09:08 10° 140° (SE) 2,817 7.1 -4.0°
Sets 01:12:38 0° 123° (ESE) 3,715 7.6 -4.6°
